Location: ??????????
(54.7560°N, 39.1389°E)
Time: 02:34:04
(UTC+00:00)

Cosmos 2227 Rocket - Pass Details

Date: 19 May 2025
Orbit: 837 x 844 km, 71.0° (Epoch: 13 June)

Event Time Altitude Azimuth Distance (km) Brightness Sun altitude
Exits shadow 23:08:33 - 161° (SSE) 2,918 4.6 -11.7°
Reaches altitude 10° 23:10:04 10° 152° (SSE) 2,449 4.3 -11.6°
Maximum altitude 23:14:20 23° 102° (ESE) 1,721 4.0 -11.4°
Drops below altitude 10° 23:18:39 10° 53° (NE) 2,466 5.8 -11.1°
Sets 23:21:33 0° 39° (NE) 3,406 7.3 -10.9°
